Flag for Brazil Past Weather in Vitória da Conquista, Bahia, Brazil — Yesterday and Last 2 Weeks

Now
81 °F

Scattered clouds.


Feels Like: 84 °F
Forecast: 59 / 72 °F
Wind: 15 mph from East

Location: Salvador Aeroporto

Current Time: Jul 24, 2016 at 10:00:41 AM

Latest Report: Jul 24, 2016 at 9:00 AM


Visibility: N/A

Pressure: 30.12 "Hg (27.22 "Hg at 889m altitude)

Humidity: 70%

Dew Point: 70 °F

Location of Vitória da ConquistaLocation

Past Weather in Vitória da Conquista — Graph

°F

Vitória da Conquista Temperature Yesterday

Maximum temperature yesterday: 82 °F (at 12:00 PM)
Minimum temperature yesterday: 73 °F (at 10:00 PM)
Average temperature yesterday: 78 °F

High & Low Weather Summary for the Past Weeks

 TemperatureHumidityPressure
High86 °F (Jul 17, 12:00 PM)100% (Jul 9, 5:00 PM)30.15 "Hg (Jul 9, 5:00 PM)
Low39 °F (Jul 9, 5:00 PM)20% (Jul 23, 5:00 PM)29.92 "Hg (Jul 17, 2:00 PM)
Average77 °F72%30.05 "Hg
* Reported Jul 9 8:00 AM — Jul 24 8:00 AM, Vitória da Conquista, Weather by CustomWeather, © 2016

Note: Actual official high and low records may vary slightly from our data, if they occured in-between our weather recording intervals... More about our weather records

Advertising

Vitória da Conquista Weather History for the Previous 24 Hours

Scroll right to see more
 ConditionsComfort  
Time TempWeatherWind HumidityBarometerVisibility
8:00 AM
Sun, Jul 24
79 °FScattered clouds.13 mph70%30.12 "HgN/A
7:00 AM77 °FScattered clouds.13 mph79%30.09 "HgN/A
6:00 AM77 °FScattered clouds.14 mph74%30.07 "HgN/A
5:00 AM77 °FPassing clouds.14 mph74%30.07 "HgN/A
4:00 AM77 °FPassing clouds.14 mph74%30.07 "HgN/A
3:00 AM77 °FPassing clouds.12 mph74%30.07 "HgN/A
2:00 AM77 °FPassing clouds.13 mph74%30.09 "HgN/A
1:00 AM73 °FPassing clouds.12 mph89%30.09 "HgN/A
12:00 AM72 °FScattered showers. Passing clouds.12 mph94%30.09 "Hg5 mi
11:00 PM
Sat, Jul 23
75 °FScattered showers. Passing clouds.12 mph78%30.12 "Hg5 mi
10:00 PM73 °FScattered showers. Passing clouds.14 mph83%30.12 "HgN/A
9:00 PM75 °FPassing clouds.6 mph83%30.09 "HgN/A
5:00 PM79 °FScattered showers. Broken clouds.9 mph20%30.07 "HgN/A
4:00 PM81 °FScattered showers. Scattered clouds.10 mph66%30.07 "HgN/A
3:00 PM82 °FScattered clouds.10 mph62%30.07 "HgN/A
2:00 PM82 °FScattered clouds.12 mph58%30.07 "HgN/A
1:00 PM81 °FScattered clouds.12 mph62%30.09 "HgN/A
12:00 PM82 °FScattered clouds.13 mph62%30.12 "HgN/A
11:00 AM81 °FScattered clouds.13 mph70%30.12 "HgN/A
10:00 AM75 °FLight rain. Fog.14 mph83%30.15 "Hg3 mi
Weather by CustomWeather, © 2016

See weather overviewHow to use our weather pages